AirNav   Air Wisconsin pilot careers
 
 358 users online  

50CO Castle Rock Adventist Health Campus Heliport
Castle Rock, Colorado, USA

GOING TO CASTLE ROCK?


FAA INFORMATION EFFECTIVE 24 MAY 2018

Location

FAA Identifier: 50CO
Lat/Long: 39-24-22.0000N / 104-53-03.0000W
39-24.366667N / 104-53.050000W
39.4061111 / -104.8841667
(estimated)
Elevation: 6134 ft. / 1870 m (estimated)
From city: 2 miles SE of CASTLE ROCK, CO
Time zone: UTC -6 (UTC -7 during Standard Time)
Zip code: 80108

Heliport Operations

Heliport use: Private use. Permission required prior to landing
Activation date: 02/2012
Control tower: no
ARTCC: DENVER CENTER
FSS: DENVER FLIGHT SERVICE STATION
Attendance: CONTINUOUS
Wind indicator: lighted
Segmented circle: no

Heliport Communications

WX ASOS at APA (10 nm N): 120.3 (720-873-2799)

Nearby radio navigation aids

VOR radial/distance  VOR name  Freq  Var
FQFr205/20.9FALCON VORTAC116.3011E
DENr195/26.5DENVER VOR/DME117.9008E
BRKr329/30.1BLACK FOREST VOR/DME112.5008E
DVVr194/31.7MILE HIGH VORTAC114.7008E
BJCr148/32.6JEFFCO VOR/DME115.4011E

 
NDB name  Hdg/Dist  Freq  Var  ID
CASSE205/3.326008EAP .- .--.

Heliport Services

Runway Information

Helipad H1

Dimensions: 40 x 40 ft. / 12 x 12 m
Surface: concrete, in good condition
Latitude: 39-24.366667N
Longitude: 104-53.050000W
Elevation: 6134.0 ft.
Traffic pattern: leftleft

Heliport Ownership and Management from official FAA records

Ownership: Privately-owned
Owner: PORTERCARE ADVENTIST HEALTH SYSTEM
2350 MEADOWS BLVD
CASTLE ROCK, CO 80109
Phone 720-455-2500
Manager: ERIC SCHWEITZER
2350 MEADOWS BLVD
CASTLE ROCK, CO 80109
Phone 720-455-2500

Instrument Procedures

There are no published instrument procedures at 50CO.

Some nearby airports with instrument procedures:

KAPA - Centennial Airport (10 nm N)
KBKF - Buckley Air Force Base (19 nm N)
KFTG - Front Range Airport (28 nm NE)
KDEN - Denver International Airport (29 nm N)
KBJC - Rocky Mountain Metropolitan Airport (32 nm N)
 
Loc | Ops | Rwys | IFR | FBO | Links
Com | Nav | Svcs | Stats | Notes

AirNav Hotels Sweepstakes
 
Aerial photo
No photo
 
Airport distance calculator
Flying to Castle Rock Adventist Health Campus Heliport? Find the distance to fly.

From to 50CO

Sunrise and sunset
Times for 26-May-2018
 Local
(UTC-6)
 Zulu
(UTC)
Morning civil twilight05:0711:07
Sunrise05:3811:38
Sunset20:1502:15
Evening civil twilight20:4602:46

Current date and time
Zulu (UTC)  26-May-2018 07:00:56
Local (UTC-6)  26-May-2018 01:00:56
 
METAR
KAPA 
10nm N 
260653Z 21009G17KT 10SM CLR 21/07 A3003 RMK AO2 SLP086 T02060067 403110111
KMNH 
16nm SE 
260630Z AUTO 16019G25KT 10SM CLR 16/06 A3013 RMK AO2
KBKF 
20nm N 
260558Z 22004KT 10SM FEW120 19/04 A3003 RMK AO2A SLP089 T01850035 10302 20171 51007
TAF
KAPA 
10nm N 
260523Z 2606/2706 17009KT P6SM SKC FM261400 24005KT P6SM SKC FM261700 VRB05KT P6SM SKC FM262100 15013G20KT P6SM FEW120 SCT250 FM270200 17013G20KT P6SM FEW120 BKN200
KBKF 
20nm N 
260100Z 2601/2707 11009KT 9999 SCT120 BKN200 QNH2996INS BECMG 2603/2604 16012KT 9999 FEW220 QNH2993INS BECMG 2606/2607 18012KT 9999 SKC QNH2987INS BECMG 2616/2617 16012G18KT 9999 SKC 510009 QNH2984INS BECMG 2621/2622 17020G30KT 9999 SCT220 520009 QNH2982INS TX33/2621Z TN10/2612Z
NOTAMs
Click for the latest NOTAMs
NOTAMs are issued by the DoD/FAA and will open in a separate window not controlled by AirNav.

 

 
 

Would you like to see your business listed on this page?

 If your business provides an interesting product or service to pilots, flight crews, aircraft, or users of the Castle Rock Adventist Health Campus Heliport, you should consider listing it here.  To start the listing process, click on the button below
 
Add a business
 

Other Pages about Castle Rock Adventist Health Campus Heliport

Update a link
 
Copyright © AirNav, LLC. All rights reserved. Privacy Policy  Contact